User: anonymous   Login
Location: *
(33.8649°S, 62.1526°E)
Time: 07:25:00
(UTC+00:00)
Language:

Terra - Orbit

View from above orbital plane
View from above orbital plane
View from above satellite
View from above satellite

Ground track
Ground track

The orbit data is extracted from the following two-line orbital elements,

1 25994U 99068A   21108.90721701  .00000077  00000-0  27126-4 0  9996
2 25994  98.1785 184.4126 0001293 100.4356  10.3897 14.57124131134677
Epoch (UTC): 18 April 2021 21:46:23
Eccentricity: 0.0001293
inclination: 98.1785°
perigee height: 701 km
apogee height: 703 km
right ascension of ascending node: 184.4126°
argument of perigee: 100.4356°
revolutions per day: 14.57124131
mean anomaly at epoch: 10.3897°
orbit number at epoch: 13467

The dashed part of the orbit path shows where the satellite is in the earth's shadow,  

DLR